#timestamp,LO_Frequency,Hit 
1502578815.6,286047002.7,N
1502578835.4,286047000.7,N
1502578855.3,286047004.8,N
1502578875.1,286047003.1,N
1502578876.0,286047003.1,N
1502578895.8,286047000.2,N
1502578915.7,286046997.2,N
1502578935.5,286046995.2,N
1502578955.3,286046994.6,N
1502578975.2,286046993.3,N
1502578995.9,286046995.4,N
1502579015.7,286046997.3,N
1502579035.5,286046996.2,N
1502579055.4,286046993.8,N
1502579075.2,286046993.3,N
1502579095.0,286046992.2,N
1502579095.9,286046992.2,N
1502579115.8,286046991.0,N
1502579135.6,286046993.2,N
1502579155.4,286046994.6,N
1502579175.3,286046994.8,N
1502579195.1,286046993.6,N
1502579215.8,286046993.0,N
1502579235.7,286046991.7,N
1502579255.5,286046991.5,N
1502579275.3,286046988.8,N
1502579295.2,286046988.0,N
1502579315.9,286046987.7,N
1502579335.7,286046989.4,N
1502579355.6,286046987.0,N
1502579375.4,286046983.7,P
1502579395.2,286046990.5,N
1502579415.1,286046990.2,N
1502579416.0,286046990.2,N
1502579435.8,286046993.1,N
1502579455.6,286046990.5,N
1502579475.5,286046990.8,N
1502579495.3,286046992.9,N
1502579515.1,286046996.3,N
1502579535.8,286046994.5,N
1502579555.7,286046997.9,N
1502579575.5,286046996.2,N
1502579595.3,286046996.0,N
1502579615.2,286046999.1,N
1502579635.9,286047000.3,N
1502579655.7,286047000.7,N
1502579675.6,286047003.9,N
1502579695.4,286047003.2,N
1502579715.2,286047003.0,N
1502579735.1,286047005.8,N
1502579736.0,286047005.8,N
1502579755.1,286047008.4,N
1502579756.0,286047008.4,N
1502579775.8,286047004.5,N
1502579795.6,286047008.3,N
1502579815.5,286047012.0,N
1502579835.3,286047012.4,N
1502579855.1,286047009.3,N
1502579875.8,286047010.5,N
1502579895.7,286047009.3,N
1502579915.5,286047010.4,N
1502579935.3,286047007.6,N
1502579955.2,286047005.7,N
1502579975.9,286047010.6,N
1502579995.7,286047012.1,N
1502580015.6,286047009.5,N
1502580035.4,286047010.5,N
1502580055.2,286047012.1,N
1502580075.1,286047009.0,N
1502580076.0,286047009.0,N
1502580095.8,286047006.6,N
1502580115.6,286047007.3,N
1502580135.5,286047007.5,N
1502580155.3,286047003.5,N
1502580175.1,286047004.0,N
1502580195.9,286047004.2,N
1502580215.7,286047003.6,N
1502580235.5,286047004.5,N
1502580255.4,286047005.7,N
1502580275.2,286047007.2,N
1502580295.0,286047009.1,P
1502580295.9,286047009.1,P
1502580315.9,286046997.9,P
1502580335.7,286046995.1,N
1502580355.6,286046996.5,N
1502580375.4,286046998.5,N
1502580395.2,286046998.3,N
1502580415.0,286047001.1,N
1502580415.9,286047001.1,N
1502580435.8,286046999.3,N
1502580455.6,286046999.5,N
1502580475.4,286046998.1,N
1502580495.3,286046999.3,N
1502580515.1,286046999.1,N
1502580535.8,286046998.1,N
1502580555.7,286046998.4,N
1502580575.5,286046997.6,N
1502580595.3,286047001.0,N
1502580615.2,286046998.4,N
1502580635.9,286046998.4,N
1502580655.7,286046996.5,N
1502580675.6,286046995.5,N
1502580695.4,286046993.6,N
1502580715.2,286046996.2,N
1502580735.0,286046996.9,N
1502580735.9,286046996.9,N
1502580755.8,286046999.3,N
1502580775.6,286046998.7,N
1502580795.4,286046999.7,N
1502580815.3,286047004.3,N
1502580835.1,286047004.3,N
1502580855.8,286047000.2,N
1502580875.7,286046998.1,N
1502580895.5,286046999.5,N
1502580915.3,286046997.1,N
1502580935.2,286046995.7,N
1502580955.9,286046997.3,N
1502580975.7,286046997.9,N
1502580995.6,286046997.6,N
1502581015.4,286046995.9,N
1502581035.2,286046993.4,N
1502581055.1,286046991.7,P
1502581056.0,286046991.7,N
1502581075.8,286046997.1,N
1502581095.6,286046999.2,N
1502581115.5,286047000.7,N
1502581135.3,286046998.6,N
1502581155.1,286046997.1,N
1502581175.9,286047000.7,N
1502581195.7,286047002.8,N
1502581215.5,286047002.2,N
1502581235.3,286046999.4,N
1502581255.2,286046997.9,N
1502581275.0,286046995.1,N
1502581275.9,286046995.1,N
1502581295.7,286046993.4,N
1502581315.6,286046993.8,N
1502581335.4,286046995.7,N
1502581355.2,286046992.0,N
1502581375.1,286046994.7,N
1502581376.0,286046994.7,N
1502581395.8,286046994.5,N
1502581415.6,286046992.6,N
1502581435.5,286046991.9,N
1502581455.3,286046990.4,N
1502581475.1,286046991.1,N
1502581495.9,286046987.2,P
1502581515.7,286046992.4,N
1502581535.5,286046992.6,N
1502581555.4,286046992.9,N
1502581575.2,286046992.9,N
1502581595.0,286046990.5,P
1502581595.9,286046990.5,P
1502581615.8,286047002.6,P
1502581635.6,286047004.2,N
1502581655.4,286047000.0,N
1502581675.3,286046999.6,N
1502581695.1,286046995.1,N
1502581696.0,286046995.1,N
1502581715.8,286046997.5,N
1502581735.7,286046999.0,N
1502581755.5,286046998.5,N
1502581775.3,286046998.2,N
1502581795.1,286047000.2,N
1502581815.9,286046999.8,N
1502581835.7,286047001.2,N
1502581855.5,286046998.8,N
1502581875.4,286046996.6,N
1502581895.2,286046996.8,N
1502581915.0,286047000.4,N
1502581915.9,286047000.4,N
1502581935.8,286047001.6,N
1502581955.6,286047005.4,N
1502581975.4,286047005.1,N
1502581995.3,286047004.6,N
1502582015.1,286047007.6,N
1502582016.0,286047007.6,N
1502582035.8,286047007.6,N
1502582055.7,286047007.1,N
1502582075.5,286047002.9,N
1502582095.3,286047006.8,N
1502582115.1,286047010.5,N
1502582135.9,286047010.6,N
1502582155.7,286047010.4,N
1502582175.5,286047009.9,N
1502582195.4,286047012.5,N
1502582215.2,286047015.6,P
1502582235.0,286047009.6,N
1502582236.0,286047009.6,N
1502582255.8,286047012.3,N
1502582275.6,286047011.5,N
1502582295.4,286047007.8,N
1502582315.3,286047004.6,N
1502582335.1,286047004.6,N
1502582355.8,286047007.6,N
1502582375.7,286047006.4,N
1502582395.5,286047007.1,N
